DW2149 Weather Reports


Display with metric or nautical units.
time (UTC)temp
F
wind
direction
speed
MPH
gust
MPH
rain 1hr
in
rain 24hr
in
rain mn
in
humidity
%
barometer
mb
20260503020809 71 199 0.0 0.0 0.00 0.00 0.00 55 1007.4
20260503020602 71 199 0.0 0.0 0.00 0.00 0.00 55 1007.4
20260503020351 71 199 0.0 0.0 0.00 0.00 0.00 55 1007.4
20260503020143 71 199 0.0 0.0 0.00 0.00 0.00 54 1007.4
20260503015937 71 199 0.0 0.0 0.00 0.00 0.00 54 1007.4
20260503015731 71 199 0.0 0.0 0.00 0.00 0.00 54 1007.4
20260503015518 72 199 0.0 0.0 0.00 0.00 0.00 53 1007.4
20260503015316 72 199 0.0 0.0 0.00 0.00 0.00 54 1007.4
20260503014929 72 199 0.0 0.0 0.00 0.00 0.00 53 1007.4
20260503014725 72 199 0.0 0.0 0.00 0.00 0.00 53 1007.5
20260503014338 72 199 0.0 0.0 0.00 0.00 0.00 53 1007.5
20260503013947 73 199 0.0 0.0 0.00 0.00 0.00 52 1007.4
20260503013738 73 199 0.0 0.0 0.00 0.00 0.00 51 1007.5
20260503013532 73 199 0.0 0.0 0.00 0.00 0.00 51 1007.4
20260503013323 73 199 0.0 0.0 0.00 0.00 0.00 52 1007.5
20260503013118 73 199 0.0 0.0 0.00 0.00 0.00 52 1007.6
20260503012917 74 199 0.0 0.0 0.00 0.00 0.00 51 1007.6
20260503012714 74 199 0.0 0.0 0.00 0.00 0.00 51 1007.6
20260503012513 74 199 0.0 0.0 0.00 0.00 0.00 51 1007.6
20260503012305 74 199 0.0 0.0 0.00 0.00 0.00 51 1007.5
20260503012055 74 199 0.0 0.0 0.00 0.00 0.00 48 1007.5
20260503011849 74 199 0.0 0.0 0.00 0.00 0.00 43 1007.5
20260503011637 74 199 0.0 1.0 0.00 0.00 0.00 44 1007.6
20260503011426 74 199 0.0 0.0 0.00 0.00 0.00 43 1007.6
20260503011219 74 199 0.0 0.0 0.00 0.00 0.00 43 1007.6
20260503011013 74 199 0.0 0.0 0.00 0.00 0.00 44 1007.6
20260503010806 74 199 0.0 0.0 0.00 0.00 0.00 45 1007.6
20260503010555 74 199 0.0 0.0 0.00 0.00 0.00 44 1007.6
20260503010342 74 199 0.0 0.0 0.00 0.00 0.00 43 1007.6
20260503010134 74 199 0.0 0.0 0.00 0.00 0.00 43 1007.7
20260503005922 74 199 0.0 0.0 0.00 0.00 0.00 43 1007.6
20260503005712 74 199 0.0 1.0 0.00 0.00 0.00 44 1007.7
20260503005506 74 199 0.0 1.0 0.00 0.00 0.00 44 1007.8
20260503005256 74 199 0.0 1.0 0.00 0.00 0.00 43 1007.8
20260503005054 74 199 0.0 1.0 0.00 0.00 0.00 43 1007.7
20260503004852 74 199 0.0 3.0 0.00 0.00 0.00 43 1007.8
20260503004642 74 199 0.0 3.0 0.00 0.00 0.00 43 1007.7
20260503004429 74 199 0.0 3.0 0.00 0.00 0.00 43 1007.8
20260503004225 74 198 0.0 3.0 0.00 0.00 0.00 44 1007.7
20260503004016 74 199 0.0 2.0 0.00 0.00 0.00 43 1007.8
20260503003810 74 199 0.0 0.0 0.00 0.00 0.00 45 1007.8
20260503003419 74 199 0.0 3.0 0.00 0.00 0.00 42 1007.8
20260503003206 74 199 0.0 3.0 0.00 0.00 0.00 43 1007.9
20260503002955 74 199 0.0 3.0 0.00 0.00 0.00 44 1007.9
20260503002747 74 199 0.0 3.0 0.00 0.00 0.00 44 1007.9
20260503002536 74 198 0.0 1.0 0.00 0.00 0.00 44 1007.9
20260503002326 74 198 0.0 1.0 0.00 0.00 0.00 44 1007.9
20260503001935 74 198 0.0 1.0 0.00 0.00 0.00 44 1007.9
20260503001548 74 198 0.0 0.0 0.00 0.00 0.00 44 1007.9
20260503001340 74 198 0.0 0.0 0.00 0.00 0.00 44 1007.9
20260503000942 74 211 0.0 3.0 0.00 0.00 0.00 45 1007.9
20260503000734 74 264 0.0 3.0 0.00 0.00 0.00 43 1007.9
20260503000522 74 210 0.0 1.0 0.00 0.00 0.00 44 1008.0
20260503000319 74 210 0.0 1.0 0.00 0.00 0.00 44 1008.0
20260502235924 74 210 0.0 1.0 0.00 0.00 0.00 42 1008.0
20260502235714 74 210 0.0 1.0 0.00 0.00 0.00 43 1008.1
20260502235503 74 210 0.0 0.0 0.00 0.00 0.00 43 1008.1
20260502235255 74 210 0.0 0.0 0.00 0.00 0.00 43 1008.2
20260502235052 74 210 0.0 2.0 0.00 0.00 0.00 42 1008.2
20260502234840 74 210 0.0 2.0 0.00 0.00 0.00 43 1008.2
20260502234637 74 210 1.0 1.0 0.00 0.00 0.00 44 1008.2
20260502234426 74 210 1.0 6.0 0.00 0.00 0.00 43 1008.2
20260502234224 74 210 1.0 6.0 0.00 0.00 0.00 42 1008.2
20260502234018 74 210 1.0 6.0 0.00 0.00 0.00 44 1008.2
20260502233806 74 210 1.0 6.0 0.00 0.00 0.00 43 1008.2
20260502233557 74 210 0.0 6.0 0.00 0.00 0.00 43 1008.2
20260502233347 74 211 0.0 4.0 0.00 0.00 0.00 44 1008.2
20260502233137 74 167 0.0 2.0 0.00 0.00 0.00 43 1008.2
20260502232933 74 150 0.0 2.0 0.00 0.00 0.00 43 1008.2
20260502232730 74 137 0.0 2.0 0.00 0.00 0.00 44 1008.1
20260502232524 74 210 0.0 0.0 0.00 0.00 0.00 44 1008.2
20260502232318 74 210 0.0 3.0 0.00 0.00 0.00 43 1008.2
20260502232108 74 210 0.0 3.0 0.00 0.00 0.00 43 1008.3
20260502231901 74 210 0.0 3.0 0.00 0.00 0.00 43 1008.3
20260502231656 75 210 0.0 1.0 0.00 0.00 0.00 43 1008.4
20260502231443 75 210 0.0 1.0 0.00 0.00 0.00 41 1008.4
20260502231231 75 210 0.0 6.0 0.00 0.00 0.00 42 1008.5
20260502231025 75 210 0.0 3.0 0.00 0.00 0.00 42 1008.5
20260502230637 75 220 0.0 3.0 0.00 0.00 0.00 42 1008.5
20260502230245 75 223 1.0 3.0 0.00 0.00 0.00 42 1008.5
20260502230044 76 223 1.0 3.0 0.00 0.00 0.00 42 1008.5
20260502225656 75 223 1.0 6.0 0.00 0.00 0.00 44 1008.6
20260502225454 75 232 1.0 6.0 0.00 0.00 0.00 42 1008.6
20260502225249 75 236 1.0 6.0 0.00 0.00 0.00 41 1008.6
20260502225042 76 211 0.0 4.0 0.00 0.00 0.00 42 1008.7
20260502224837 76 211 0.0 4.0 0.00 0.00 0.00 41 1008.8
20260502224632 76 211 0.0 5.0 0.00 0.00 0.00 41 1008.8
20260502224430 76 211 0.0 5.0 0.00 0.00 0.00 43 1008.8
20260502224220 76 211 0.0 5.0 0.00 0.00 0.00 42 1008.8
20260502224010 76 211 1.0 5.0 0.00 0.00 0.00 42 1008.9
20260502223804 76 211 1.0 5.0 0.00 0.00 0.00 40 1009.0
20260502223551 76 211 1.0 5.0 0.00 0.00 0.00 41 1009.0
20260502223349 76 211 1.0 5.0 0.00 0.00 0.00 41 1009.1
20260502223138 77 211 1.0 5.0 0.00 0.00 0.00 43 1009.1
20260502222744 77 213 0.0 5.0 0.00 0.00 0.00 40 1009.1
20260502222541 77 213 0.0 1.0 0.00 0.00 0.00 43 1009.1
20260502222328 77 213 0.0 2.0 0.00 0.00 0.00 41 1009.1
20260502222121 77 215 1.0 7.0 0.00 0.00 0.00 40 1009.2
20260502221915 77 215 1.0 7.0 0.00 0.00 0.00 39 1009.2
20260502221525 77 215 1.0 7.0 0.00 0.00 0.00 39 1009.3
20260502221132 77 257 1.0 7.0 0.00 0.00 0.00 40 1009.3
20260502220929 77 257 1.0 7.0 0.00 0.00 0.00 40 1009.4
20260502220721 78 257 1.0 7.0 0.00 0.00 0.00 37 1009.5
20260502220140 78 215 1.0 6.0 0.00 0.00 0.00 40 1009.6
20260502215928 78 228 1.0 6.0 0.00 0.00 0.00 40 1009.6
20260502215716 78 231 2.0 6.0 0.00 0.00 0.00 40 1009.7
20260502215509 78 230 2.0 6.0 0.00 0.00 0.00 40 1009.7
20260502215305 77 221 1.0 6.0 0.00 0.00 0.00 40 1009.7
20260502215100 77 244 2.0 5.0 0.00 0.00 0.00 39 1009.7
20260502214527 76 226 1.0 5.0 0.00 0.00 0.00 39 1009.7
20260502214136 77 218 0.0 5.0 0.00 0.00 0.00 41 1009.8
20260502213931 77 210 0.0 7.0 0.00 0.00 0.00 41 1009.9
20260502213727 77 213 0.0 7.0 0.00 0.00 0.00 41 1009.9
20260502213515 77 140 0.0 7.0 0.00 0.00 0.00 42 1009.8
20260502213126 77 219 1.0 7.0 0.00 0.00 0.00 41 1010.0
20260502212733 77 219 2.0 7.0 0.00 0.00 0.00 40 1010.1
20260502212530 77 216 2.0 7.0 0.00 0.00 0.00 41 1010.1
20260502212325 77 216 2.0 7.0 0.00 0.00 0.00 40 1010.0
20260502212123 77 194 1.0 6.0 0.00 0.00 0.00 42 1010.1
20260502211912 77 187 1.0 7.0 0.00 0.00 0.00 42 1010.1
20260502211707 77 197 1.0 7.0 0.00 0.00 0.00 39 1010.1
20260502211500 77 211 1.0 7.0 0.00 0.00 0.00 41 1010.1
20260502211255 77 259 1.0 7.0 0.00 0.00 0.00 40 1010.1
20260502211045 77 258 2.0 7.0 0.00 0.00 0.00 42 1010.1
20260502210843 77 210 2.0 7.0 0.00 0.00 0.00 41 1010.2
20260502210630 77 203 2.0 7.0 0.00 0.00 0.00 41 1010.2
20260502210243 77 207 1.0 7.0 0.00 0.00 0.00 40 1010.3
20260502205701 78 234 0.0 6.0 0.00 0.00 0.00 41 1010.3
20260502205449 78 210 1.0 6.0 0.00 0.00 0.00 41 1010.4
20260502205238 77 197 0.0 1.0 0.00 0.00 0.00 43 1010.4
20260502205036 77 195 0.0 6.0 0.00 0.00 0.00 43 1010.4
20260502204647 77 191 1.0 6.0 0.00 0.00 0.00 41 1010.5
20260502204440 77 201 1.0 6.0 0.00 0.00 0.00 39 1010.4
20260502204229 77 355 1.0 6.0 0.00 0.00 0.00 41 1010.4
20260502204024 77 36 2.0 10.0 0.00 0.00 0.00 41 1010.5
20260502203822 77 204 2.0 10.0 0.00 0.00 0.00 40 1010.5
20260502203616 77 210 1.0 10.0 0.00 0.00 0.00 40 1010.4
20260502203414 77 212 1.0 10.0 0.00 0.00 0.00 41 1010.5
20260502203208 77 207 1.0 10.0 0.00 0.00 0.00 40 1010.5
20260502202957 77 201 1.0 10.0 0.00 0.00 0.00 43 1010.5
20260502202755 77 199 1.0 10.0 0.00 0.00 0.00 44 1010.6
20260502202544 76 198 1.0 10.0 0.00 0.00 0.00 44 1010.6
20260502202337 76 174 1.0 10.0 0.00 0.00 0.00 45 1010.5
20260502202124 75 203 1.0 6.0 0.00 0.00 0.00 43 1010.6
20260502201919 76 203 1.0 6.0 0.00 0.00 0.00 43 1010.6
20260502201527 76 57 1.0 6.0 0.00 0.00 0.00 43 1010.5
20260502201321 76 215 1.0 6.0 0.00 0.00 0.00 44 1010.7
20260502201119 76 195 1.0 6.0 0.00 0.00 0.00 42 1010.6
20260502200911 76 198 1.0 6.0 0.00 0.00 0.00 41 1010.6
20260502200708 77 216 1.0 6.0 0.00 0.00 0.00 42 1010.6
20260502200459 77 217 2.0 6.0 0.00 0.00 0.00 40 1010.7
20260502200253 77 207 1.0 6.0 0.00 0.00 0.00 41 1010.8
20260502200047 77 202 1.0 6.0 0.00 0.00 0.00 44 1010.8
20260502195844 77 121 1.0 6.0 0.00 0.00 0.00 42 1010.8
20260502195642 76 247 1.0 6.0 0.00 0.00 0.00 43 1010.8
20260502195437 76 215 1.0 6.0 0.00 0.00 0.00 43 1010.8
20260502195120 77 211 1.0 6.0 0.00 0.00 0.00 42 1010.8
20260502194907 77 212 1.0 6.0 0.00 0.00 0.00 45 1010.9
20260502194700 76 212 1.0 6.0 0.00 0.00 0.00 44 1010.9
20260502194449 76 215 1.0 6.0 0.00 0.00 0.00 42 1011.0
20260502194237 76 217 1.0 6.0 0.00 0.00 0.00 44 1010.9
20260502193844 76 217 1.0 6.0 0.00 0.00 0.00 42 1011.0
20260502193637 76 211 1.0 6.0 0.00 0.00 0.00 44 1011.0
20260502193431 76 211 1.0 6.0 0.00 0.00 0.00 41 1011.0
20260502193224 76 211 1.0 6.0 0.00 0.00 0.00 42 1011.1
20260502192834 76 218 1.0 6.0 0.00 0.00 0.00 44 1011.1
20260502192624 76 265 2.0 6.0 0.00 0.00 0.00 42 1011.1
20260502192423 76 233 1.0 6.0 0.00 0.00 0.00 44 1011.1
20260502192217 76 234 1.0 6.0 0.00 0.00 0.00 42 1011.1
20260502192004 76 219 1.0 5.0 0.00 0.00 0.00 46 1011.1
20260502191756 76 214 1.0 5.0 0.00 0.00 0.00 46 1011.1
20260502191547 76 214 1.0 4.0 0.00 0.00 0.00 44 1011.1
20260502191341 76 213 1.0 4.0 0.00 0.00 0.00 42 1011.1
20260502191131 75 216 0.0 3.0 0.00 0.00 0.00 45 1011.2
20260502190918 75 216 0.0 3.0 0.00 0.00 0.00 44 1011.2
20260502190523 76 216 0.0 7.0 0.00 0.00 0.00 43 1011.3
20260502190320 76 217 0.0 7.0 0.00 0.00 0.00 47 1011.3
20260502190109 75 205 1.0 7.0 0.00 0.00 0.00 45 1011.3
20260502185859 75 205 1.0 7.0 0.00 0.00 0.00 45 1011.3
20260502185316 75 211 2.0 7.0 0.00 0.00 0.00 45 1011.3
20260502185113 75 196 2.0 7.0 0.00 0.00 0.00 43 1011.3
20260502184903 75 191 1.0 7.0 0.00 0.00 0.00 44 1011.3
20260502184701 75 212 1.0 6.0 0.00 0.00 0.00 46 1011.3
20260502184313 75 203 1.0 6.0 0.00 0.00 0.00 45 1011.3
20260502184105 75 221 1.0 6.0 0.00 0.00 0.00 45 1011.3
20260502183855 75 221 1.0 6.0 0.00 0.00 0.00 48 1011.3
20260502183651 74 222 1.0 6.0 0.00 0.00 0.00 50 1011.4
20260502183443 74 222 2.0 6.0 0.00 0.00 0.00 47 1011.4
20260502183235 74 214 1.0 6.0 0.00 0.00 0.00 46 1011.5
20260502183025 74 208 1.0 6.0 0.00 0.00 0.00 46 1011.4
20260502182822 74 205 1.0 6.0 0.00 0.00 0.00 46 1011.4
20260502182613 74 207 1.0 6.0 0.00 0.00 0.00 47 1011.4
20260502182403 74 207 1.0 6.0 0.00 0.00 0.00 47 1011.4
20260502182153 74 219 2.0 6.0 0.00 0.00 0.00 47 1011.4
20260502181951 74 219 2.0 6.0 0.00 0.00 0.00 48 1011.4
20260502181744 74 219 2.0 6.0 0.00 0.00 0.00 47 1011.4
20260502181536 73 200 2.0 8.0 0.00 0.00 0.00 47 1011.4
20260502181328 73 219 2.0 8.0 0.00 0.00 0.00 46 1011.4
20260502181117 73 223 2.0 8.0 0.00 0.00 0.00 47 1011.4
20260502180912 73 225 2.0 8.0 0.00 0.00 0.00 48 1011.4
20260502180701 73 211 2.0 8.0 0.00 0.00 0.00 48 1011.5
20260502180304 73 217 2.0 8.0 0.00 0.00 0.00 48 1011.4
20260502170516 69 207 0.0 3.0 0.00 0.00 0.00 55 1011.2
20260502170304 69 207 1.0 0.0 0.00 0.00 0.00 55 1011.3
20260502164150 65 219 0.0 6.0 0.00 0.00 0.00 63 1011.4
20260502163949 65 219 0.0 6.0 0.00 0.00 0.00 63 1011.4
20260502163744 64 223 0.0 0.0 0.00 0.00 0.00 65 1011.4
20260502163356 63 223 0.0 3.0 0.00 0.00 0.00 68 1011.4
20260502163001 62 223 0.0 3.0 0.00 0.00 0.00 73 1011.3
20260502162759 61 223 0.0 1.0 0.00 0.00 0.00 76 1011.2
20260502162555 61 223 0.0 5.0 0.00 0.00 0.00 77 1011.2
20260502162158 59 306 0.0 0.0 0.00 0.00 0.00 83 1011.2
20260502161949 58 306 0.0 0.0 0.00 0.00 0.00 84 1011.2
20260502161602 58 310 0.0 0.0 0.00 0.00 0.00 86 1011.2
20260502161353 57 310 0.0 0.0 0.00 0.00 0.00 87 1011.1
20260502161146 57 310 0.0 0.0 0.00 0.00 0.00 87 1011.1
20260502160937 57 310 0.0 0.0 0.00 0.00 0.00 88 1011.2
20260502160730 56 310 0.0 0.0 0.00 0.00 0.00 88 1011.1
20260502160522 56 310 0.0 0.0 0.00 0.00 0.00 88 1011.1
20260502160319 56 310 0.0 0.0 0.00 0.00 0.00 88 1011.1
20260502160107 56 310 0.0 0.0 0.00 0.00 0.00 88 1011.0
20260502151719 51 309 0.0 0.0 0.00 0.00 0.00 85 1010.9
20260502151321 51 309 0.0 0.0 0.00 0.00 0.00 85 1010.8
20260502151111 51 306 0.0 0.0 0.00 0.00 0.00 84 1010.9
20260502150909 51 306 0.0 0.0 0.00 0.00 0.00 84 1010.9
20260502150702 51 306 0.0 0.0 0.00 0.00 0.00 84 1010.9
20260502150453 51 306 0.0 0.0 0.00 0.00 0.00 84 1010.9
20260502150251 51 306 0.0 0.0 0.00 0.00 0.00 84 1010.9
20260502130551 50 306 0.0 0.0 0.00 0.00 0.00 84 1010.2
20260502130344 50 306 0.0 0.0 0.00 0.00 0.00 84 1010.2
20260502130134 50 306 0.0 0.0 0.00 0.00 0.00 84 1010.2
20260502123702 50 306 0.0 0.0 0.00 0.00 0.00 84 1010.3
20260502123449 50 306 0.0 0.0 0.00 0.00 0.00 84 1010.4
20260502123237 50 306 0.0 0.0 0.00 0.00 0.00 84 1010.3
20260502123027 50 306 0.0 0.0 0.00 0.00 0.00 84 1010.4
20260502122820 50 306 0.0 0.0 0.00 0.00 0.00 84 1010.5
20260502122618 50 306 0.0 0.0 0.00 0.00 0.00 84 1010.4
20260502122406 50 306 0.0 0.0 0.00 0.00 0.00 84 1010.5
20260502122013 50 306 0.0 0.0 0.00 0.00 0.00 84 1010.5
20260502121802 50 306 0.0 0.0 0.00 0.00 0.00 84 1010.4
20260502121408 50 306 0.0 0.0 0.00 0.00 0.00 84 1010.5
20260502121204 50 306 0.0 0.0 0.00 0.00 0.00 84 1010.4
20260502120953 50 306 0.0 0.0 0.00 0.00 0.00 84 1010.6
20260502120559 50 306 0.0 0.0 0.00 0.00 0.00 84 1010.5
20260502120355 50 306 0.0 0.0 0.00 0.00 0.00 84 1010.6
20260502120151 50 306 0.0 0.0 0.00 0.00 0.00 84 1010.5
20260502115759 50 306 0.0 0.0 0.00 0.00 0.00 84 1010.6
20260502115226 50 306 0.0 0.0 0.00 0.00 0.00 84 1010.6
20260502115015 50 306 0.0 0.0 0.00 0.00 0.00 84 1010.6
20260502114808 50 306 0.0 0.0 0.00 0.00 0.00 84 1010.6
20260502114600 50 306 0.0 0.0 0.00 0.00 0.00 84 1010.6
20260502114347 50 306 0.0 0.0 0.00 0.00 0.00 83 1010.6
20260502114137 50 306 0.0 0.0 0.00 0.00 0.00 83 1010.6
20260502113930 50 306 0.0 0.0 0.00 0.00 0.00 83 1010.6
20260502113724 50 306 0.0 0.0 0.00 0.00 0.00 83 1010.7
20260502113517 50 306 0.0 0.0 0.00 0.00 0.00 84 1010.6
20260502113257 50 306 0.0 0.0 0.00 0.00 0.00 84 1010.7
20260502113046 50 306 0.0 0.0 0.00 0.00 0.00 84 1010.7
20260502112842 50 306 0.0 0.0 0.00 0.00 0.00 83 1010.7
20260502112632 50 306 0.0 0.0 0.00 0.00 0.00 83 1010.7
20260502112419 50 306 0.0 0.0 0.00 0.00 0.00 83 1010.7
20260502112213 50 306 0.0 0.0 0.00 0.00 0.00 83 1010.7
20260502111825 50 306 0.0 0.0 0.00 0.00 0.00 83 1010.8
20260502111251 50 306 0.0 0.0 0.00 0.00 0.00 83 1010.8
20260502111043 50 306 0.0 0.0 0.00 0.00 0.00 83 1010.9
20260502110830 50 306 0.0 0.0 0.00 0.00 0.00 83 1010.9
20260502110619 50 306 0.0 0.0 0.00 0.00 0.00 83 1010.8
20260502110407 50 306 0.0 0.0 0.00 0.00 0.00 83 1010.9
20260502110203 50 306 0.0 0.0 0.00 0.00 0.00 83 1010.9
20260502105950 50 306 0.0 0.0 0.00 0.00 0.00 83 1010.9
20260502105737 50 306 0.0 0.0 0.00 0.00 0.00 83 1010.9
20260502105533 50 306 0.0 0.0 0.00 0.00 0.00 83 1011.0
20260502105320 50 306 0.0 0.0 0.00 0.00 0.00 83 1010.9
20260502104933 50 306 0.0 0.0 0.00 0.00 0.00 83 1011.0
20260502104725 50 306 0.0 0.0 0.00 0.00 0.00 83 1011.0
20260502104519 50 306 0.0 0.0 0.00 0.00 0.00 83 1010.9
20260502104316 50 306 0.0 0.0 0.00 0.00 0.00 83 1011.0
20260502104107 50 306 0.0 0.0 0.00 0.00 0.00 83 1010.9
20260502103906 50 306 0.0 0.0 0.00 0.00 0.00 83 1011.0
20260502103655 50 306 0.0 0.0 0.00 0.00 0.00 83 1011.0
20260502103445 50 306 0.0 0.0 0.00 0.00 0.00 83 1011.0
20260502103052 50 306 0.0 0.0 0.00 0.00 0.00 83 1011.0
20260502102841 50 306 0.0 0.0 0.00 0.00 0.00 82 1011.1
20260502102630 50 306 0.0 0.0 0.00 0.00 0.00 82 1011.2
20260502102239 50 306 0.0 0.0 0.00 0.00 0.00 82 1011.2
20260502102033 50 306 0.0 0.0 0.00 0.00 0.00 82 1011.2
20260502101635 50 306 0.0 0.0 0.00 0.00 0.00 82 1011.2
20260502101427 50 306 0.0 0.0 0.00 0.00 0.00 82 1011.2
20260502101219 50 306 0.0 0.0 0.00 0.00 0.00 82 1011.2
20260502100822 50 306 0.0 0.0 0.00 0.00 0.00 82 1011.2
20260502100431 50 306 0.0 0.0 0.00 0.00 0.00 82 1011.3
20260502100220 50 306 0.0 0.0 0.00 0.00 0.00 82 1011.2
20260502091426 50 306 0.0 0.0 0.00 0.00 0.00 81 1011.6
20260502091219 50 306 0.0 0.0 0.00 0.00 0.00 81 1011.7
20260502091013 50 306 0.0 0.0 0.00 0.00 0.00 81 1011.6
20260502090809 51 306 0.0 0.0 0.00 0.00 0.00 81 1011.6
20260502090419 50 306 0.0 0.0 0.00 0.00 0.00 80 1011.6
20260502071437 51 306 0.0 0.0 0.00 0.00 0.00 75 1011.8
20260502071236 51 306 0.0 0.0 0.00 0.00 0.00 75 1011.8
20260502071027 51 306 0.0 0.0 0.00 0.00 0.00 75 1011.7
20260502070814 51 306 0.0 0.0 0.00 0.00 0.00 75 1011.8
20260502070602 52 306 0.0 0.0 0.00 0.00 0.00 75 1011.8
20260502070358 52 306 0.0 0.0 0.00 0.00 0.00 74 1011.7
20260502070008 52 306 0.0 0.0 0.00 0.00 0.00 74 1011.7
20260502065755 52 306 0.0 0.0 0.00 0.00 0.00 74 1011.8
20260502065400 52 306 0.0 0.0 0.00 0.00 0.00 74 1011.7
20260502065004 52 306 0.0 0.0 0.00 0.00 0.00 74 1011.7
20260502064755 52 306 0.0 0.0 0.00 0.00 0.00 74 1011.6
20260502064544 52 306 0.0 0.0 0.00 0.00 0.00 74 1011.6
20260502064151 52 306 0.0 0.0 0.00 0.00 0.00 74 1011.7
20260502063800 52 306 0.0 0.0 0.00 0.00 0.00 74 1011.7
20260502063551 53 306 0.0 0.0 0.00 0.00 0.00 74 1011.7
20260502063349 53 306 0.0 0.0 0.00 0.00 0.00 74 1011.7
20260502063145 53 306 0.0 0.0 0.00 0.00 0.00 74 1011.7
20260502062750 53 306 0.0 0.0 0.00 0.00 0.00 74 1011.7
20260502062404 53 306 0.0 0.0 0.00 0.00 0.00 74 1011.6
20260502062202 53 306 0.0 0.0 0.00 0.00 0.00 74 1011.7
20260502061958 53 306 0.0 0.0 0.00 0.00 0.00 75 1011.7
20260502061750 53 306 0.0 0.0 0.00 0.00 0.00 75 1011.7
20260502061545 53 306 0.0 0.0 0.00 0.00 0.00 75 1011.7
20260502061343 53 306 0.0 0.0 0.00 0.00 0.00 75 1011.7
20260502061136 54 306 0.0 0.0 0.00 0.00 0.00 75 1011.7
20260502060932 54 306 0.0 0.0 0.00 0.00 0.00 75 1011.7
20260502060731 54 306 0.0 0.0 0.00 0.00 0.00 75 1011.7
20260502060524 54 306 0.0 0.0 0.00 0.00 0.00 75 1011.7
20260502060132 54 306 0.0 0.0 0.00 0.00 0.00 75 1011.7
20260502055739 54 306 0.0 0.0 0.00 0.00 0.00 75 1011.7
20260502055531 54 306 0.0 0.0 0.00 0.00 0.00 75 1011.7
20260502055328 54 306 0.0 0.0 0.00 0.00 0.00 75 1011.7
20260502055116 54 306 0.0 0.0 0.00 0.00 0.00 75 1011.7
20260502054907 55 306 0.0 0.0 0.00 0.00 0.00 75 1011.7
20260502054512 55 306 0.0 0.0 0.00 0.00 0.00 75 1011.7
20260502054301 55 306 0.0 0.0 0.00 0.00 0.00 75 1011.8
20260502054050 55 306 0.0 0.0 0.00 0.00 0.00 75 1011.8
20260502053845 55 306 0.0 0.0 0.00 0.00 0.00 75 1011.8
20260502053644 55 306 0.0 0.0 0.00 0.00 0.00 75 1011.8
20260502053431 55 306 0.0 0.0 0.00 0.00 0.00 74 1011.7
20260502053224 55 306 0.0 0.0 0.00 0.00 0.00 74 1011.7
20260502053013 55 306 0.0 0.0 0.00 0.00 0.00 74 1011.7
20260502052807 55 306 0.0 0.0 0.00 0.00 0.00 74 1011.7
20260502052558 56 306 0.0 0.0 0.00 0.00 0.00 74 1011.7
20260502052346 56 306 0.0 0.0 0.00 0.00 0.00 74 1011.7
20260502052140 56 306 0.0 0.0 0.00 0.00 0.00 74 1011.7
20260502051930 56 306 0.0 0.0 0.00 0.00 0.00 74 1011.7
20260502051726 56 306 0.0 0.0 0.00 0.00 0.00 74 1011.7
20260502051522 56 306 0.0 0.0 0.00 0.00 0.00 74 1011.6
20260502051315 56 306 0.0 0.0 0.00 0.00 0.00 74 1011.6
20260502051110 56 306 0.0 0.0 0.00 0.00 0.00 74 1011.7
20260502050857 56 306 0.0 0.0 0.00 0.00 0.00 74 1011.7
20260502050645 57 306 0.0 0.0 0.00 0.00 0.00 74 1011.7
20260502050438 57 306 0.0 0.0 0.00 0.00 0.00 74 1011.7
20260502050230 57 306 0.0 0.0 0.00 0.00 0.00 74 1011.7
20260502050025 57 306 0.0 0.0 0.00 0.00 0.00 73 1011.8
20260502045812 57 306 0.0 0.0 0.00 0.00 0.00 73 1011.7
20260502045424 57 306 0.0 0.0 0.00 0.00 0.00 73 1011.7
20260502045219 57 306 0.0 0.0 0.00 0.00 0.00 73 1011.7
20260502045017 57 306 0.0 0.0 0.00 0.00 0.00 73 1011.7
20260502044814 58 306 0.0 0.0 0.00 0.00 0.00 73 1011.6
20260502044608 58 306 0.0 0.0 0.00 0.00 0.00 73 1011.6
20260502044406 58 306 0.0 0.0 0.00 0.00 0.00 73 1011.5
20260502044200 58 306 0.0 0.0 0.00 0.00 0.00 73 1011.5
20260502043952 58 306 0.0 0.0 0.00 0.00 0.00 73 1011.5
20260502043603 58 306 0.0 0.0 0.00 0.00 0.00 72 1011.5
20260502043212 58 306 0.0 0.0 0.00 0.00 0.00 72 1011.5
20260502043009 59 306 0.0 0.0 0.00 0.00 0.00 72 1011.5
20260502042759 59 306 0.0 0.0 0.00 0.00 0.00 72 1011.5
20260502042554 59 306 0.0 0.0 0.00 0.00 0.00 72 1011.4
20260502042342 59 306 0.0 0.0 0.00 0.00 0.00 71 1011.5
20260502042130 59 306 0.0 0.0 0.00 0.00 0.00 71 1011.4
20260502041734 59 306 0.0 0.0 0.00 0.00 0.00 71 1011.4
20260502041527 60 306 0.0 0.0 0.00 0.00 0.00 71 1011.4
20260502041316 60 306 0.0 0.0 0.00 0.00 0.00 71 1011.3
20260502041107 60 306 0.0 0.0 0.00 0.00 0.00 70 1011.2
20260502040902 60 306 0.0 0.0 0.00 0.00 0.00 70 1011.3
20260502040656 60 306 0.0 0.0 0.00 0.00 0.00 70 1011.3
20260502040448 60 306 0.0 0.0 0.00 0.00 0.00 70 1011.2
20260502040236 60 306 0.0 0.0 0.00 0.00 0.00 70 1011.2
20260502040024 61 306 0.0 0.0 0.00 0.00 0.00 69 1011.2
20260502035812 61 306 0.0 0.0 0.00 0.00 0.00 69 1011.1
20260502035610 61 306 0.0 0.0 0.00 0.00 0.00 69 1011.1
20260502035407 61 306 0.0 0.0 0.00 0.00 0.00 69 1011.1
20260502035155 61 306 0.0 0.0 0.00 0.00 0.00 68 1011.1
20260502034949 61 306 0.0 0.0 0.00 0.00 0.00 68 1011.0
20260502034738 62 306 0.0 0.0 0.00 0.00 0.00 68 1011.0
20260502034531 62 306 0.0 0.0 0.00 0.00 0.00 68 1010.9
20260502034329 62 306 0.0 0.0 0.00 0.00 0.00 68 1010.9
20260502034124 62 306 0.0 0.0 0.00 0.00 0.00 68 1010.9
20260502033912 62 306 0.0 0.0 0.00 0.00 0.00 67 1010.9
20260502033702 62 306 0.0 0.0 0.00 0.00 0.00 67 1010.9
20260502033455 63 306 0.0 0.0 0.00 0.00 0.00 67 1010.8
20260502033249 63 306 0.0 0.0 0.00 0.00 0.00 66 1010.8
20260502032901 63 306 0.0 0.0 0.00 0.00 0.00 66 1010.7
20260502032507 63 306 0.0 0.0 0.00 0.00 0.00 66 1010.7
20260502032259 64 306 0.0 0.0 0.00 0.00 0.00 66 1010.7
20260502032046 64 306 0.0 0.0 0.00 0.00 0.00 65 1010.7
20260502031842 64 306 0.0 0.0 0.00 0.00 0.00 65 1010.7
20260502031636 64 306 0.0 0.0 0.00 0.00 0.00 65 1010.6
20260502031426 64 306 0.0 0.0 0.00 0.00 0.00 65 1010.7
20260502031215 65 306 0.0 0.0 0.00 0.00 0.00 64 1010.6
20260502031011 65 306 0.0 0.0 0.00 0.00 0.00 64 1010.6
20260502030801 65 306 0.0 0.0 0.00 0.00 0.00 64 1010.5
20260502030600 65 306 0.0 0.0 0.00 0.00 0.00 64 1010.6
20260502030204 65 306 0.0 0.0 0.00 0.00 0.00 63 1010.5
20260502025812 66 306 0.0 0.0 0.00 0.00 0.00 63 1010.5
20260502025604 66 306 0.0 0.0 0.00 0.00 0.00 63 1010.4
20260502025356 66 306 0.0 0.0 0.00 0.00 0.00 63 1010.4
20260502025149 66 306 0.0 0.0 0.00 0.00 0.00 63 1010.4
20260502024947 66 306 0.0 0.0 0.00 0.00 0.00 63 1010.5
20260502024557 67 306 0.0 0.0 0.00 0.00 0.00 62 1010.5
20260502024201 67 306 0.0 0.0 0.00 0.00 0.00 62 1010.4
20260502023812 67 306 0.0 0.0 0.00 0.00 0.00 62 1010.5
20260502023605 67 306 0.0 0.0 0.00 0.00 0.00 61 1010.4
20260502023357 68 306 0.0 0.0 0.00 0.00 0.00 61 1010.4
20260502022819 68 306 0.0 0.0 0.00 0.00 0.00 60 1010.4
20260502022614 68 306 0.0 0.0 0.00 0.00 0.00 59 1010.4
20260502022409 69 306 0.0 0.0 0.00 0.00 0.00 59 1010.4
20260502022159 69 306 0.0 0.0 0.00 0.00 0.00 59 1010.4
20260502021950 69 306 0.0 0.0 0.00 0.00 0.00 58 1010.4
20260502021737 69 306 0.0 0.0 0.00 0.00 0.00 57 1010.4
20260502021526 70 306 0.0 0.0 0.00 0.00 0.00 57 1010.4
20260502021314 70 306 0.0 0.0 0.00 0.00 0.00 57 1010.4
20260502021108 70 306 0.0 0.0 0.00 0.00 0.00 57 1010.5